2017-02-27T15:24:50,22,23.38,30.19,26.13,12.88,5.88,4.19
2017-02-27T15:25:21,22,23.31,30.19,26,12.94,5.75,4.19
2017-02-27T15:25:53,22.06,23.31,30.19,25.88,12.94,5.63,4.19
2017-02-27T15:26:24,22.13,23.13,30.19,25.88,13.06,5.56,4.19
2017-02-27T15:26:55,22.13,23,30.19,25.81,13.06,5.69,4.19
2017-02-27T15:27:27,22.19,22.81,30.13,25.75,13.13,6.19,4.19
2017-02-27T15:27:58,22.25,22.63,30.19,25.69,13.13,6.31,4.19
2017-02-27T15:28:29,22.31,22.5,30.25,25.69,13.19,6.31,4.19
2017-02-27T15:29:01,22.38,22.5,30.25,25.63,13.19,6.31,4.19
2017-02-27T15:29:32,22.38,22.38,30.19,25.56,13.25,6.31,4.19
2017-02-27T15:30:04,22.38,22.13,30.25,25.56,13.25,6.25,4.19
2017-02-27T15:30:35,22.44,22.19,30.25,25.56,13.25,6.25,4.19
2017-02-27T15:31:06,22.44,22,30.25,25.56,13.25,6.13,4.19
2017-02-27T15:31:38,22.44,21.88,30.19,25.56,13.25,6.19,4.19
2017-02-27T15:32:09,22.44,21.81,30.19,25.56,13.31,6.25,4.19
2017-02-27T15:32:40,22.44,21.88,30.13,25.63,13.31,6.31,4.19
2017-02-27T15:33:12,22.44,21.88,30.13,25.56,13.38,6.25,4.19
2017-02-27T15:33:43,22.44,21.81,30.31,25.56,13.44,6.06,4.19
2017-02-27T15:34:15,22.38,21.75,30.31,25.5,13.44,5.94,4.19
2017-02-27T15:34:46,22.38,21.81,30.31,25.5,13.44,5.94,4.19
2017-02-27T15:35:17,22.25,22.06,30.44,25.5,13.44,5.81,4.19
2017-02-27T15:35:49,22.25,22.06,30.56,25.5,13.44,5.75,4.19
2017-02-27T15:36:20,22.19,22.19,30.63,25.5,13.44,5.69,4.19
2017-02-27T15:36:51,22.13,22.13,30.63,25.5,13.44,5.56,4.19
2017-02-27T15:37:23,22.13,22.06,30.75,25.5,13.44,5.56,4.19
2017-02-27T15:37:54,22.13,21.88,30.81,25.56,13.44,5.63,4.19
2017-02-27T15:38:26,22.13,21.81,30.81,25.56,13.44,5.81,4.19
2017-02-27T15:38:57,22.19,21.69,30.94,25.56,13.5,5.88,4.19
2017-02-27T15:39:28,22.13,21.75,31.06,25.56,13.5,5.75,4.19
2017-02-27T15:40:00,22.13,21.75,31.13,25.63,13.5,5.75,4.19
2017-02-27T15:40:31,22.06,21.94,31.06,25.69,13.5,5.81,4.19
2017-02-27T15:41:02,22.06,22,31.13,25.69,13.5,5.94,4.19
2017-02-27T15:41:34,22,21.88,31.06,25.81,13.5,5.88,4.19
2017-02-27T15:42:05,22,21.75,30.94,25.88,13.5,6,4.19
2017-02-27T15:42:36,22,21.75,30.88,25.94,13.5,6,4.19
2017-02-27T15:43:08,22,21.88,30.75,26.06,13.5,6.06,4.19
2017-02-27T15:43:39,22,21.81,30.69,26.06,13.5,6.19,4.19
2017-02-27T15:44:11,22,21.88,30.63,26.06,13.5,6.25,4.19
2017-02-27T15:44:42,22,21.94,30.63,26.13,13.5,6.31,4.19
2017-02-27T15:45:13,22.06,21.94,30.75,26.19,13.5,6.31,4.18
2017-02-27T15:45:45,22.06,21.81,30.81,26.25,13.56,6.44,4.19
2017-02-27T15:46:16,22.06,21.69,30.75,26.31,13.56,6.56,4.19
2017-02-27T15:46:47,22,21.63,30.69,26.44,13.56,6.5,4.19
2017-02-27T15:47:19,22.06,21.69,30.63,26.5,13.56,6.56,4.19
2017-02-27T15:47:50,22,21.44,30.56,26.5,13.56,6.31,4.19
2017-02-27T15:48:22,22,21.25,30.44,26.44,13.56,6.25,4.19
2017-02-27T15:48:53,22,21.06,30.44,26.44,13.56,6.19,4.19
2017-02-27T15:49:24,22,21,30.63,26.44,13.56,6.06,4.18
2017-02-27T15:49:56,21.94,21.13,30.75,26.38,13.56,6.19,4.19
2017-02-27T15:50:27,21.94,21.25,30.75,26.38,13.56,6.38,4.18
2017-02-27T15:50:58,21.94,21.5,30.75,26.38,13.56,6.25,4.19
2017-02-27T15:51:30,21.94,21.63,30.75,26.31,13.63,6.25,4.19
2017-02-27T15:52:01,21.88,21.88,30.81,26.31,13.69,6.31,4.18
2017-02-27T15:52:33,21.88,22.19,30.75,26.25,13.69,6.19,4.19
2017-02-27T15:53:04,21.88,22.19,30.69,26.19,13.69,6.19,4.19
2017-02-27T15:53:35,21.88,22.19,30.69,26.19,13.69,6.25,4.18
2017-02-27T15:54:07,21.88,22.25,30.63,26.25,13.69,6.19,4.18
2017-02-27T15:54:38,21.88,22.19,30.69,26.38,13.69,6.13,4.18
2017-02-27T15:55:09,21.81,22.19,30.56,26.44,13.69,6.25,4.19
2017-02-27T15:55:41,21.81,22.19,30.5,26.56,13.69,6.25,4.18
2017-02-27T15:56:12,21.81,22.25,30.5,26.63,13.69,6.19,4.18
2017-02-27T15:56:43,21.88,22.19,30.56,26.63,13.69,5.94,4.18
2017-02-27T15:57:15,21.94,22.06,30.5,26.69,13.75,5.81,4.18
2017-02-27T15:57:46,22.19,21.94,30.56,26.69,13.75,5.81,4.18
2017-02-27T15:58:18,22.38,21.75,30.5,26.75,13.75,5.69,4.18
2017-02-27T15:58:49,22.5,21.69,30.38,26.75,13.75,5.56,4.18
2017-02-27T15:59:20,22.63,21.75,30.25,26.69,13.75,5.5,4.18
2017-02-27T15:59:52,22.69,21.63,30.19,26.69,13.75,5.38,4.19
2017-02-27T16:00:23,22.69,21.63,30.25,26.56,13.75,5.38,4.18
2017-02-27T16:00:54,22.69,21.63,30.31,26.56,13.75,5.44,4.19
2017-02-27T16:01:26,22.63,21.75,30.5,26.5,13.81,5.5,4.18
2017-02-27T16:01:57,22.56,21.63,30.69,26.5,13.81,5.56,4.19
2017-02-27T16:02:29,22.75,21.69,30.81,26.56,13.81,5.56,4.19
2017-02-27T16:03:00,22.81,21.81,31.06,26.56,13.88,5.56,4.18
2017-02-27T16:03:31,22.63,21.88,31.19,26.56,13.81,5.5,4.18
2017-02-27T16:04:03,22.56,21.81,31.38,26.56,13.81,5.5,4.18
2017-02-27T16:04:34,22.5,21.94,31.5,26.56,13.81,5.44,4.18
2017-02-27T16:05:05,22.44,21.75,31.56,26.56,13.81,5.44,4.18
2017-02-27T16:05:37,22.44,21.69,31.63,26.63,13.81,5.38,4.18
2017-02-27T16:06:08,22.31,21.69,31.69,26.69,13.81,5.38,4.18
2017-02-27T16:06:40,22.25,21.56,31.75,26.75,13.81,5.31,4.18
2017-02-27T16:07:11,22.19,21.5,31.75,26.69,13.81,5.31,4.18
2017-02-27T16:07:42,22.19,21.31,31.69,26.69,13.81,5.31,4.18
2017-02-27T16:08:14,22.19,21.31,31.63,26.75,13.81,5.38,4.18
2017-02-27T16:08:45,22.13,21.13,31.69,26.75,13.81,5.31,4.18
2017-02-27T16:09:16,22.13,21.06,31.75,26.69,13.81,5.31,4.18
2017-02-27T16:09:48,22.06,21.06,31.75,26.75,13.81,5.31,4.18
2017-02-27T16:10:19,22.06,20.94,31.69,26.75,13.81,5.31,4.18
2017-02-27T16:10:51,22,20.81,31.63,26.94,13.81,5.31,4.18
2017-02-27T16:11:22,21.94,20.94,31.63,27.06,13.81,5.31,4.18
2017-02-27T16:11:53,22,21.19,31.56,27.19,13.81,5.25,4.18
2017-02-27T16:12:25,22,21.25,31.63,27.13,13.81,5.44,4.18
2017-02-27T16:12:56,21.94,21.06,31.63,27.13,13.81,5.56,4.18
2017-02-27T16:13:27,21.94,20.88,31.56,27.19,13.88,5.75,4.18
2017-02-27T16:13:59,22.06,20.81,31.56,27.25,13.88,5.88,4.18
2017-02-27T16:14:30,22.06,20.75,31.5,27.38,13.88,5.94,4.18
2017-02-27T16:15:01,22.06,20.69,31.56,27.5,13.88,6.06,4.18
2017-02-27T16:15:33,22.06,20.63,31.5,27.5,13.88,6.13,4.18
2017-02-27T16:16:04,22.06,20.56,31.38,27.56,13.88,5.88,4.18
2017-02-27T16:16:36,22.13,20.56,31.38,27.56,13.88,5.75,4.18
2017-02-27T16:17:07,22.13,20.69,31.38,27.44,13.88,5.63,4.18
2017-02-27T16:17:38,22.19,20.63,31.38,27.44,13.88,5.56,4.18
2017-02-27T16:18:10,22.13,20.69,31.38,27.56,13.88,5.75,4.18
2017-02-27T16:18:41,22.13,20.81,31.25,27.5,13.88,5.88,4.18
2017-02-27T16:19:12,22.06,21.06,31.25,27.56,13.88,5.81,4.18
2017-02-27T16:19:44,22.13,21.31,31.25,27.56,13.88,5.69,4.18
2017-02-27T16:20:15,22.13,21.5,31.13,27.56,13.88,5.63,4.18
2017-02-27T16:20:47,22.13,21.63,31,27.5,13.88,5.69,4.18
2017-02-27T16:21:18,22.13,21.63,31,27.44,13.88,5.63,4.18
2017-02-27T16:21:49,22.19,21.69,31.06,27.44,13.88,5.5,4.18
2017-02-27T16:22:21,22.31,21.75,31.06,27.5,13.88,5.44,4.18
2017-02-27T16:22:52,22.38,21.75,31.06,27.56,13.88,5.31,4.18
2017-02-27T16:23:23,22.44,21.81,31.13,27.56,13.88,5.25,4.18
2017-02-27T16:23:55,22.5,21.75,31.13,27.63,13.88,5.13,4.18
2017-02-27T16:24:26,22.56,21.69,31.13,27.63,13.88,5.06,4.18
2017-02-27T16:24:57,22.63,21.75,31,27.56,13.88,5.06,4.18
2017-02-27T16:25:29,22.63,21.75,31,27.63,13.88,5.06,4.18
2017-02-27T16:26:00,22.63,21.69,31,27.5,13.88,5,4.18
2017-02-27T16:26:32,22.63,21.63,31.06,27.63,13.88,5,4.18
2017-02-27T16:27:03,22.63,21.56,31.13,27.63,13.88,4.94,4.18
2017-02-27T16:27:34,22.69,21.44,31.19,27.81,13.88,4.88,4.18
2017-02-27T16:28:06,22.75,21.44,31.19,27.94,13.88,4.81,4.18
2017-02-27T16:28:37,22.81,21.5,31.19,28,13.88,4.75,4.18
2017-02-27T16:29:08,22.81,21.5,31.19,27.94,13.88,4.69,4.18
2017-02-27T16:29:40,22.88,21.44,31.06,27.94,13.88,4.63,4.18
2017-02-27T16:30:11,22.88,21.38,31.06,27.94,13.88,4.56,4.18
2017-02-27T16:30:43,22.88,21.25,31.06,27.88,13.88,4.5,4.18
2017-02-27T16:31:14,22.81,21.19,31.06,27.75,13.88,4.38,4.18
2017-02-27T16:31:45,22.81,21.06,31.06,27.94,13.94,4.31,4.18
2017-02-27T16:32:17,22.81,21.19,31,27.81,13.94,4.31,4.18
2017-02-27T16:32:48,22.81,21.19,31.06,27.88,13.94,4.25,4.18
2017-02-27T16:33:19,22.88,21.19,31.06,27.94,13.94,4.25,4.18
2017-02-27T16:33:51,22.88,21.19,31.06,28,13.94,4.38,4.18
2017-02-27T16:34:22,22.88,21.25,31.06,28.06,13.94,4.44,4.18
2017-02-27T16:34:53,22.81,21.25,31.19,28.19,13.94,4.38,4.18
2017-02-27T16:35:25,22.81,21.19,31.19,28.19,13.94,4.38,4.18
2017-02-27T16:35:56,22.81,21.13,31.13,28.25,13.94,4.31,4.18
2017-02-27T16:36:28,22.75,21,31.06,28.25,13.94,4.31,4.18
2017-02-27T16:36:59,22.75,21,31.06,28.31,13.94,4.31,4.18
2017-02-27T16:37:30,22.75,20.94,31.06,28.5,13.94,4.31,4.18
2017-02-27T16:38:02,22.69,20.88,31.06,28.63,13.94,4.25,4.18
2017-02-27T16:38:33,22.63,20.75,31.19,28.63,13.94,4.19,4.18
2017-02-27T16:39:04,22.63,20.69,31.31,28.63,13.94,4.06,4.18
2017-02-27T16:39:36,22.63,20.69,31.44,28.63,13.94,4,4.18
2017-02-27T16:40:07,22.56,20.69,31.5,28.63,13.94,4,4.18
2017-02-27T16:40:38,22.56,20.69,31.56,28.69,13.94,3.94,4.18
2017-02-27T16:41:10,22.56,20.56,31.63,28.69,13.88,3.94,4.18
2017-02-27T16:41:41,22.56,20.5,31.63,28.81,13.88,3.88,4.18
2017-02-27T16:42:13,22.56,20.44,31.63,28.88,13.88,3.88,4.18
2017-02-27T16:42:44,22.5,20.38,31.63,28.94,13.88,3.94,4.18
2017-02-27T16:43:15,22.5,20.31,31.69,29,13.88,4,4.18
2017-02-27T16:43:47,22.5,20.25,31.69,29.13,13.88,4,4.18
2017-02-27T16:44:18,22.44,20.25,31.69,29.19,13.88,4,4.18
2017-02-27T16:44:49,22.44,20.25,31.63,29.13,13.88,3.94,4.18
2017-02-27T16:45:21,22.38,20.19,31.69,29.06,13.88,3.88,4.18
2017-02-27T16:45:52,22.38,20.19,31.75,29,13.88,3.88,4.18
2017-02-27T16:46:23,22.31,20.19,31.75,29,13.88,3.81,4.18
2017-02-27T16:46:55,22.25,20.19,31.75,28.94,13.88,3.81,4.18
2017-02-27T16:47:26,22.31,20.13,31.75,28.94,13.81,3.81,4.18
2017-02-27T16:47:58,22.31,20.06,31.75,28.94,13.81,3.81,4.18
2017-02-27T16:48:29,22.31,20,31.81,29,13.81,3.81,4.18
2017-02-27T16:49:00,22.25,20,31.94,29,13.81,3.75,4.18
2017-02-27T16:49:32,22.25,19.94,32,29.06,13.81,3.75,4.18
2017-02-27T16:50:03,22.25,20,32.06,29.13,13.81,3.81,4.18
2017-02-27T16:50:34,22.25,20.06,32,29.13,13.81,3.81,4.18
2017-02-27T16:51:06,22.19,20,32.06,29.19,13.81,3.88,4.18
2017-02-27T16:51:37,22.13,20.06,32.06,29.25,13.81,3.94,4.18
2017-02-27T16:52:08,22.13,20.13,32.13,29.31,13.81,4,4.18
2017-02-27T16:52:40,22.06,20.25,32.13,29.38,13.81,4.06,4.18
2017-02-27T16:53:11,22,20.25,32.06,29.5,13.81,4.13,4.18
2017-02-27T16:53:42,22,20.25,32.06,29.44,13.81,4.19,4.18
2017-02-27T16:54:14,22,20.31,32,29.38,13.81,4.19,4.18
2017-02-27T16:54:45,22,20.31,32.06,29.44,13.81,4.25,4.18
2017-02-27T16:55:17,22,20.31,32,29.38,13.81,4.25,4.18
2017-02-27T16:55:48,22,20.19,32,29.38,13.81,4.31,4.18
2017-02-27T16:56:19,22,20.19,31.94,29.38,13.88,4.31,4.18
2017-02-27T16:56:51,22,20.25,31.88,29.38,13.88,4.31,4.18
2017-02-27T16:57:22,22,20.44,31.94,29.5,13.88,4.31,4.18
2017-02-27T16:57:53,21.94,20.69,32,29.5,13.81,4.31,4.18
2017-02-27T16:58:25,21.94,20.88,32.06,29.63,13.81,4.38,4.18
2017-02-27T16:58:56,22,20.94,32,29.63,13.81,4.38,4.18
2017-02-27T16:59:27,22,20.88,32,29.63,13.81,4.38,4.18
2017-02-27T16:59:59,22.06,21,31.94,29.56,13.81,4.44,4.18
2017-02-27T17:00:30,22.06,20.94,31.88,29.63,13.81,4.44,4.18
2017-02-27T17:01:01,22.06,21,31.88,29.56,13.81,4.44,4.18
2017-02-27T17:01:33,22.06,21.06,31.88,29.5,13.81,4.44,4.18
2017-02-27T17:02:04,22,21.06,31.88,29.5,13.81,4.44,4.18
2017-02-27T17:02:36,22,21,31.88,29.5,13.81,4.44,4.18
2017-02-27T17:03:07,21.94,20.88,31.94,29.56,13.81,4.44,4.18
2017-02-27T17:03:38,21.88,20.94,32,29.75,13.81,4.38,4.18
2017-02-27T17:04:10,21.88,20.94,32.06,29.81,13.81,4.38,4.18
2017-02-27T17:04:41,21.81,20.94,32.19,29.75,13.81,4.31,4.18
2017-02-27T17:05:12,21.81,20.81,32.25,29.69,13.81,4.31,4.18
2017-02-27T17:05:44,21.81,20.81,32.31,29.63,13.81,4.31,4.18
2017-02-27T17:06:15,21.81,20.88,32.38,29.56,13.81,4.25,4.18
2017-02-27T17:06:46,21.81,20.88,32.5,29.5,13.81,4.19,4.18
2017-02-27T17:07:18,21.88,20.88,32.63,29.44,13.81,4.19,4.18
2017-02-27T17:07:49,21.88,20.88,32.69,29.38,13.81,4.19,4.18
2017-02-27T17:08:21,21.94,20.81,32.75,29.25,13.81,4.13,4.18
2017-02-27T17:08:52,21.94,20.88,32.75,29.13,13.81,4.13,4.18
2017-02-27T17:09:23,22.13,20.81,32.75,29.13,13.81,4.06,4.18
2017-02-27T17:09:55,22.13,20.88,32.75,29.13,13.81,4.06,4.18
2017-02-27T17:10:26,22.19,20.88,32.69,29.19,13.81,4,4.18
2017-02-27T17:10:57,22.19,20.94,32.69,29.13,13.81,4,4.18
2017-02-27T17:11:29,22.19,21.06,32.63,29.06,13.81,4,4.18
2017-02-27T17:12:00,22.13,21,32.56,29.06,13.75,3.94,4.18
2017-02-27T17:12:31,22.13,21.06,32.56,29.06,13.75,3.94,4.18
2017-02-27T17:13:03,22.06,21.06,32.56,29,13.75,3.88,4.18
2017-02-27T17:13:34,22,21,32.44,29.06,13.75,3.88,4.18
2017-02-27T17:14:05,21.94,21,32.38,29.06,13.75,3.81,4.18
2017-02-27T17:14:37,21.88,20.88,32.31,29,13.75,3.81,4.18
2017-02-27T17:15:08,21.88,20.75,32.38,29,13.75,3.81,4.18
2017-02-27T17:15:40,21.81,20.69,32.38,28.94,13.75,3.81,4.18
2017-02-27T17:16:11,21.81,20.63,32.38,28.88,13.75,3.75,4.18
2017-02-27T17:16:42,21.75,20.63,32.31,28.81,13.75,3.75,4.18
2017-02-27T17:17:14,21.75,20.56,32.31,28.69,13.75,3.75,4.18
2017-02-27T17:17:45,21.75,20.56,32.31,28.69,13.75,3.75,4.18
2017-02-27T17:18:16,21.69,20.56,32.31,28.69,13.75,3.75,4.18
2017-02-27T17:18:48,21.69,20.56,32.13,28.75,13.75,3.75,4.18
2017-02-27T17:19:19,21.69,20.56,32.13,28.75,13.75,3.69,4.18
2017-02-27T17:19:50,21.69,20.56,32.06,28.69,13.75,3.75,4.18
2017-02-27T17:20:22,21.69,20.5,32.06,28.75,13.75,3.75,4.18
2017-02-27T17:20:53,21.69,20.5,32,28.75,13.75,3.75,4.18
2017-02-27T17:21:25,21.63,20.5,31.94,28.75,13.75,3.75,4.18
2017-02-27T17:21:56,21.63,20.5,32,28.56,13.75,3.75,4.18
2017-02-27T17:22:27,21.63,20.44,32.06,28.56,13.75,3.81,4.18
2017-02-27T17:22:59,21.69,20.44,32.13,28.56,13.75,3.81,4.18
2017-02-27T17:23:30,21.81,20.38,32.13,28.5,13.75,3.81,4.18
2017-02-27T17:24:01,21.75,20.38,32.19,28.63,13.75,3.81,4.18
2017-02-27T17:24:33,21.75,20.31,32.19,28.56,13.75,3.81,4.18
2017-02-27T17:25:04,21.69,20.25,32.25,28.44,13.75,3.75,4.18
2017-02-27T17:25:35,21.69,20.19,32.25,28.44,13.75,3.69,4.18
2017-02-27T17:26:07,21.69,20.19,32.19,28.38,13.75,3.69,4.18
2017-02-27T17:26:38,21.63,20.13,32.19,28.38,13.75,3.63,4.18
2017-02-27T17:27:09,21.63,20.13,32.13,28.56,13.75,3.63,4.18
2017-02-27T17:27:41,21.69,20.25,32.13,28.56,13.75,3.56,4.18
2017-02-27T17:28:12,21.63,20.19,32.13,28.56,13.75,3.5,4.18
2017-02-27T17:28:44,21.63,20.19,32.19,28.63,13.69,3.5,4.18
2017-02-27T17:29:15,21.63,20.19,32.19,28.63,13.69,3.44,4.18
2017-02-27T17:29:46,21.63,20.19,32.25,28.69,13.75,3.44,4.18
2017-02-27T17:30:18,21.63,20.13,32.25,28.69,13.75,3.44,4.18
2017-02-27T17:30:49,21.63,20.19,32.25,28.69,13.81,3.44,4.18
2017-02-27T17:31:20,21.56,20.13,32.19,28.63,13.81,3.44,4.18
2017-02-27T17:31:52,21.56,20.13,32.19,28.75,13.81,3.38,4.18
2017-02-27T17:32:23,21.56,20.13,32.31,28.81,13.81,3.38,4.18
2017-02-27T17:32:54,21.56,20.13,32.31,28.88,13.81,3.38,4.18
2017-02-27T17:33:26,21.56,20.06,32.38,28.94,13.81,3.38,4.18
2017-02-27T17:33:57,21.56,20.06,32.44,29,13.81,3.38,4.18
2017-02-27T17:34:28,21.56,20.06,32.5,29.13,13.81,3.38,4.18
2017-02-27T17:35:00,21.56,20.06,32.5,29.13,13.81,3.38,4.18
2017-02-27T17:35:31,21.56,20.06,32.56,29.19,13.81,3.38,4.19
2017-02-27T17:36:02,21.56,20.06,32.63,29.25,13.81,3.38,4.18
2017-02-27T17:36:34,21.56,20.13,32.63,29.31,13.75,3.38,4.18
2017-02-27T17:37:05,21.56,20.19,32.63,29.44,13.81,3.38,4.18
2017-02-27T17:37:37,21.56,20.19,32.63,29.56,13.75,3.38,4.18
2017-02-27T17:38:08,21.56,20.19,32.56,29.69,13.75,3.38,4.18
2017-02-27T17:38:39,21.56,20.25,32.56,29.75,13.75,3.38,4.18
2017-02-27T17:39:11,21.56,20.19,32.56,29.69,13.75,3.44,4.18
2017-02-27T17:39:42,21.56,20.31,32.44,29.69,13.75,3.44,4.18
2017-02-27T17:40:13,21.56,20.38,32.38,29.56,13.75,3.5,4.18
2017-02-27T17:40:45,21.56,20.44,32.38,29.63,13.75,3.44,4.19
2017-02-27T17:41:16,21.56,20.5,32.31,29.69,13.75,3.44,4.18
2017-02-27T17:41:47,21.56,20.56,32.31,29.63,13.75,3.38,4.18
2017-02-27T17:42:19,21.56,20.56,32.25,29.63,13.75,3.31,4.18
2017-02-27T17:42:50,21.56,20.63,32.25,29.5,13.75,3.31,4.18
2017-02-27T17:43:21,21.56,20.56,32.31,29.5,13.69,3.31,4.18
2017-02-27T17:43:53,21.56,20.44,32.31,29.44,13.75,3.31,4.18
2017-02-27T17:44:24,21.56,20.44,32.31,29.38,13.75,3.31,4.18
2017-02-27T17:44:55,21.56,20.38,32.25,29.25,13.75,3.31,4.18
2017-02-27T17:45:27,21.56,20.44,32.19,29.31,13.69,3.31,4.18
2017-02-27T17:45:58,21.56,20.44,32.25,29.31,13.75,3.25,4.18
2017-02-27T17:46:29,21.56,20.44,32.31,29.25,13.69,3.25,4.18
2017-02-27T17:47:01,21.56,20.38,32.38,29.25,13.75,3.25,4.18
2017-02-27T17:47:32,21.56,20.25,32.38,29.25,13.75,3.25,4.18
2017-02-27T17:48:03,21.56,20.19,32.44,29.25,13.69,3.19,4.18
2017-02-27T17:48:35,21.56,20.13,32.38,29.25,13.69,3.19,4.18
2017-02-27T17:49:06,21.56,20.13,32.38,29.25,13.69,3.13,4.18
2017-02-27T17:49:37,21.56,20.06,32.44,29.31,13.69,3.13,4.17
2017-02-27T17:50:09,21.56,20.13,32.44,29.38,13.69,3,4.18
2017-02-27T17:50:40,21.56,20.06,32.5,29.5,13.69,2.94,4.17
2017-02-27T17:51:11,21.56,20,32.44,29.56,13.69,2.88,4.19
2017-02-27T17:51:43,21.56,20,32.38,29.63,13.69,2.81,4.19
2017-02-27T17:52:14,21.56,20.06,32.31,29.69,13.63,2.75,4.17
2017-02-27T17:52:46,21.56,20.06,32.38,29.63,13.63,2.63,4.17
2017-02-27T17:53:17,21.56,20.06,32.38,29.5,13.63,2.63,4.18
2017-02-27T17:53:48,21.56,20.06,32.38,29.5,13.63,2.63,4.17
2017-02-27T17:54:20,21.56,20,32.38,29.63,13.63,2.63,4.17
2017-02-27T17:54:51,21.56,20,32.38,29.69,13.63,2.56,4.18
2017-02-27T17:55:22,21.5,19.94,32.38,29.69,13.63,2.5,4.18
2017-02-27T17:55:54,21.5,20,32.44,29.69,13.63,2.38,4.17
2017-02-27T17:56:25,21.56,20,32.5,29.69,13.63,2.31,4.18
2017-02-27T17:56:56,21.56,20,32.5,29.69,13.63,2.25,4.17
2017-02-27T17:57:28,21.5,20,32.5,29.69,13.63,2.25,4.17
2017-02-27T17:57:59,21.5,20,32.44,29.69,13.63,2.19,4.18
2017-02-27T17:58:30,21.56,20,32.38,29.69,13.63,2.13,4.18
2017-02-27T17:59:02,21.56,20,32.25,29.75,13.63,2.06,4.17
2017-02-27T17:59:33,21.56,20,32.19,29.75,13.63,1.94,4.17
2017-02-27T18:00:04,21.56,20,32.13,29.75,13.63,1.94,4.18
2017-02-27T18:00:36,21.56,20.06,32.13,29.69,13.63,1.88,4.17
2017-02-27T18:01:07,21.56,20.06,32.13,29.63,13.63,1.88,4.17
2017-02-27T18:01:38,21.56,20.06,32.13,29.63,13.56,1.81,4.17
2017-02-27T18:02:10,21.56,20,32.13,29.69,13.56,1.81,4.17
2017-02-27T18:02:41,21.56,19.94,32.13,29.75,13.56,1.75,4.17
2017-02-27T18:03:12,21.56,19.88,32.06,29.81,13.56,1.81,4.17
2017-02-27T18:03:44,21.56,19.88,32,29.75,13.56,1.88,4.17
2017-02-27T18:04:15,21.56,19.88,32,29.75,13.56,1.94,4.18
2017-02-27T18:04:46,21.56,19.81,32.06,29.81,13.56,1.88,4.17
2017-02-27T18:05:18,21.56,19.88,32.13,29.94,13.56,2,4.17
2017-02-27T18:05:49,21.56,19.94,32.19,29.94,13.56,2,4.17
2017-02-27T18:06:20,21.56,19.88,32.25,30.06,13.56,2,4.17
2017-02-27T18:06:52,21.56,19.94,32.31,30.13,13.56,1.94,4.17
2017-02-27T18:07:23,21.56,19.88,32.31,30.19,13.56,1.94,4.17
2017-02-27T18:07:54,21.56,19.88,32.38,30.25,13.56,1.94,4.18
2017-02-27T18:08:26,21.56,19.88,32.44,30.25,13.56,1.88,4.17
2017-02-27T18:08:57,21.56,19.81,32.5,30.19,13.56,1.88,4.18
2017-02-27T18:09:28,21.56,19.81,32.5,30.19,13.56,1.81,4.17
2017-02-27T18:09:59,21.56,19.75,32.44,30.19,13.56,1.81,4.17
2017-02-27T18:10:31,21.56,19.75,32.44,30.25,13.56,1.75,4.18
2017-02-27T18:11:02,21.56,19.81,32.5,30.31,13.56,1.69,4.17
2017-02-27T18:11:33,21.56,19.75,32.44,30.31,13.56,1.69,4.17
2017-02-27T18:12:05,21.56,19.75,32.44,30.25,13.56,1.69,4.17
2017-02-27T18:12:36,21.56,19.69,32.44,30.19,13.5,1.75,4.18
2017-02-27T18:13:07,21.56,19.69,32.38,30.06,13.5,1.75,4.17
2017-02-27T18:13:39,21.56,19.69,32.38,29.94,13.5,1.81,4.18
2017-02-27T18:14:10,21.56,19.75,32.38,29.94,13.5,1.75,4.18
2017-02-27T18:14:41,21.56,19.69,32.38,29.88,13.5,1.75,4.18
2017-02-27T18:15:13,21.56,19.69,32.44,29.75,13.5,1.81,4.18
2017-02-27T18:15:44,21.56,19.69,32.44,29.69,13.5,1.88,4.17
2017-02-27T18:16:15,21.56,19.69,32.31,29.75,13.5,1.94,4.18
2017-02-27T18:16:47,21.56,19.75,32.25,29.75,13.5,1.88,4.17
2017-02-27T18:17:18,21.5,19.75,32.19,29.81,13.5,1.81,4.17
2017-02-27T18:17:49,21.5,19.75,32.19,29.94,13.5,1.75,4.18
2017-02-27T18:18:21,21.5,19.75,32.19,29.88,13.5,1.69,4.17
2017-02-27T18:18:52,21.5,19.81,32.19,29.81,13.5,1.69,4.17
2017-02-27T18:19:23,21.5,19.81,32.19,29.81,13.5,1.63,4.18
2017-02-27T18:19:55,21.5,19.81,32.25,29.88,13.44,1.63,4.17
2017-02-27T18:20:26,21.5,19.81,32.25,29.94,13.5,1.56,4.18
2017-02-27T18:20:57,21.5,19.81,32.31,30,13.44,1.5,4.17
2017-02-27T18:21:29,21.5,19.81,32.38,30,13.5,1.56,4.18
2017-02-27T18:22:00,21.5,19.81,32.38,30,13.5,1.56,4.18
2017-02-27T18:22:31,21.5,19.81,32.56,30.06,13.5,1.63,4.18
2017-02-27T18:23:03,21.5,19.88,32.63,30.13,13.5,1.63,4.18
2017-02-27T18:23:34,21.56,19.88,32.69,30.19,13.5,1.56,4.17
2017-02-27T18:24:05,21.56,19.88,32.81,30.25,13.5,1.5,4.17
2017-02-27T18:24:37,21.56,19.94,32.88,30.25,13.5,1.44,4.18
2017-02-27T18:25:08,21.56,19.88,32.94,30.31,13.5,1.38,4.18
2017-02-27T18:25:39,21.56,19.94,33.06,30.38,13.5,1.38,4.18
2017-02-27T18:26:10,21.56,20,33.19,30.44,13.5,1.44,4.17
2017-02-27T18:26:42,21.56,20,33.25,30.5,13.5,1.38,4.18
2017-02-27T18:27:13,21.56,20,33.31,30.5,13.5,1.38,4.18
2017-02-27T18:27:44,21.56,20.06,33.5,30.38,13.5,1.38,4.18
2017-02-27T18:28:16,21.56,20.06,33.63,30.38,13.5,1.38,4.18
2017-02-27T18:28:47,21.56,20.06,33.63,30.38,13.44,1.38,4.18
2017-02-27T18:29:18,21.56,20,33.69,30.44,13.44,1.31,4.18
2017-02-27T18:29:50,21.56,20,33.63,30.56,13.44,1.38,4.17
2017-02-27T18:30:21,21.63,20,33.63,30.56,13.44,1.38,4.18
2017-02-27T18:30:52,21.69,20,33.56,30.56,13.44,1.38,4.17
2017-02-27T18:31:24,21.69,20.06,33.56,30.56,13.38,1.38,4.17
2017-02-27T18:31:55,21.69,20.13,33.44,30.56,13.38,1.38,4.18
2017-02-27T18:32:26,21.63,20.13,33.44,30.44,13.38,1.38,4.17
2017-02-27T18:32:58,21.63,20.06,33.44,30.5,13.38,1.38,4.18
2017-02-27T18:33:29,21.63,20,33.38,30.5,13.38,1.38,4.18
2017-02-27T18:34:00,21.63,19.94,33.31,30.44,13.38,1.44,4.18
2017-02-27T18:34:32,21.63,19.94,33.31,30.44,13.31,1.44,4.17
2017-02-27T18:35:03,21.63,19.94,33.25,30.38,13.31,1.44,4.18
2017-02-27T18:35:34,21.63,20,33.13,30.38,13.38,1.5,4.17
2017-02-27T18:36:05,21.63,20,33.06,30.44,13.31,1.5,4.17
2017-02-27T18:36:37,21.56,19.94,32.88,30.44,13.31,1.5,4.17
2017-02-27T18:37:08,21.56,19.94,32.75,30.5,13.31,1.5,4.18
2017-02-27T18:37:39,21.63,20,32.63,30.5,13.31,1.5,4.18
2017-02-27T18:38:11,21.56,19.94,32.63,30.5,13.31,1.5,4.18
2017-02-27T18:38:42,21.56,19.88,32.56,30.56,13.31,1.5,4.18
2017-02-27T18:39:13,21.56,19.88,32.56,30.63,13.31,1.44,4.18
2017-02-27T18:39:45,21.56,19.81,32.5,30.56,13.25,1.5,4.18
2017-02-27T18:40:16,21.56,19.81,32.5,30.63,13.25,1.5,4.18
2017-02-27T18:40:47,21.56,19.81,32.44,30.56,13.25,1.5,4.18
2017-02-27T18:41:19,21.56,19.75,32.44,30.69,13.25,1.44,4.17
2017-02-27T18:41:50,21.56,19.75,32.44,30.88,13.25,1.38,4.18
2017-02-27T18:42:21,21.56,19.75,32.38,31.06,13.25,1.31,4.18
2017-02-27T18:42:53,21.56,19.69,32.44,31.06,13.25,1.19,4.18
2017-02-27T18:43:24,21.56,19.69,32.44,31.06,13.25,1.13,4.18
2017-02-27T18:43:55,21.56,19.69,32.5,31,13.25,1.06,4.18
2017-02-27T18:44:26,21.56,19.69,32.56,30.94,13.25,1,4.18
2017-02-27T18:44:58,21.56,19.69,32.63,31,13.25,1,4.18
2017-02-27T18:45:29,21.56,19.69,32.5,31,13.25,0.94,4.18
2017-02-27T18:46:00,21.56,19.63,32.69,31,13.25,0.94,4.18
2017-02-27T18:46:32,21.56,19.63,32.81,30.94,13.25,0.88,4.18
2017-02-27T18:47:03,21.56,19.63,32.88,31,13.25,0.88,4.17
2017-02-27T18:47:34,21.56,19.63,33,30.94,13.25,0.81,4.18
2017-02-27T18:48:06,21.56,19.63,33.06,30.88,13.25,0.94,4.18
2017-02-27T18:48:37,21.56,19.63,33.06,30.88,13.25,0.94,4.17
2017-02-27T18:49:08,21.56,19.63,33.13,30.88,13.25,0.94,4.18
2017-02-27T18:49:40,21.56,19.69,33.13,30.88,13.19,0.94,4.18
2017-02-27T18:50:11,21.56,19.69,33.06,30.88,13.19,0.94,4.18
2017-02-27T18:50:42,21.56,19.69,33,30.94,13.19,0.94,4.18
2017-02-27T18:51:13,21.56,19.69,33.06,31,13.19,0.94,4.17
2017-02-27T18:51:45,21.56,19.69,33.13,31.06,13.19,0.94,4.18
2017-02-27T18:52:16,21.56,19.75,33.19,31.06,13.19,0.94,4.18
2017-02-27T18:52:47,21.56,19.81,33.25,31.06,13.19,0.94,4.18
2017-02-27T18:53:19,21.56,19.81,33.31,31.13,13.19,0.94,4.18
2017-02-27T18:53:50,21.56,19.81,33.31,31.19,13.13,0.88,4.18
2017-02-27T18:54:21,21.56,19.81,33.31,31.31,13.13,0.88,4.18